THOR ABLESTAR DEB, 6747

Orbit data source: Space-Track

THOR ABLESTAR DEB, 6747 is space debris in LEO originally from a launch on Thu, 29 Jun 1961 UTC launched from the Air Force Eastern Test Range (AFETR). Debris objects in space refer to the collection of defunct objects orbiting the Earth. Examples of debris include non-operational satellites, rocket bodies, and fragments generated from explosions, collisions, or faulty payload assembly.

Loading next visibility...
Identifier
6747, 1961-015KM
Orbit
LEO
Country
Flag of USUS
Related business
Manufacturer
Unknown
Mission
Spacecraft
Bus & Motor
Unknown
Mass
Unknown
Launch date (UTC)
1961-06-29 (65 years ago)
Launch vehicle
Unknown
Launch site
Air Force Eastern Test Range (AFETR)
Object type
Payload
Rocket body
Debris
Shape & HBR
Unknown shape, 0.1 m
Radar Cross Section
Small (<0.1 m²)

Expand to show TLE details & history
Last TLE update: 23 hours ago

TLE from 23 hours ago
0 THOR ABLESTAR DEB
1 06747U 61015KM  26119.41850788  .00000383  00000-0  31334-3 0  9998
2 06747  66.5991 267.2016 0145807 241.7048 116.9255 13.95172639284770
Epoch: 2026-04-29T10:02Z
TLE epoch observation values (Epoch: 2026-04-29T10:02:39.080Z)
Latitude
-0.0001°
Longitude
-100.84103°
Altitude
961.973 km
Speed
7.346 km/s
True Right ascension
17h 48m 48s
True Declination
0° 00' 00"
Sunlit
Object was in full shadow at epoch
Visualization orbit readout
Latitude
Unknown
Longitude
Unknown
Altitude
Unknown
Speed
Unknown
Apparent Right ascension
Unknown
Apparent Declination
Unknown
Sunlit
N/A
Visualization observer readout
Local Sidereal Time
16:37:48
Azimuth
Unknown
Elevation
Unknown
Doppler factor
Unknown
Orbital elements
Apogee altitude
1,015.223 km
Perigee altitude
802.721 km
Semi-major axis
7,287.109 km
Eccentricity
0.01458
Inclination
66.5991°
RAAN
267.2016°
Arg. of periapsis
241.7048°
True anomaly
118.40284°
Mean anomaly
116.9255°
Eccentric anomaly
117.6654°
Mean motion
3.48907 °/min
Orbital period
103.18 mins
BSTAR
0.00031334
Loading maneuver chart data...
Computing Atmospheric mass density...

Documentation

Showing up to 5 results
|